THY5038 LTAC-OEMA

Flight info

Callsign THY5038
Flight time 2h 44m
Altitude 35000
Route HALIL UW77 AYT UM855 TOMBI M855 RASDA A16 CVO L315 OBTAV/N0458F370 L315 HGD M872 BOVET
Aircraft B739/M-SDE2E3FGHIRWXY/LB1

Departure

Time 2026-05-07 17:09
Airport Esenboğa International Airport (LTAC)

Arrival

Time 2026-05-07 19:53
Airport Prince Mohammad Bin Abdulaziz Airport (OEMA)
Time Latitude Longitude Altitude Speed Heading
2026-05-07 17:08 40.29040 32.97458 9038 ft 275 kts 308°
2026-05-07 17:09 40.30230 32.95474 9697 ft 279 kts 308°
2026-05-07 17:09 40.31430 32.93454 10331 ft 284 kts 304°
2026-05-07 17:09 40.32122 32.90987 10483 ft 307 kts 273°
2026-05-07 17:09 40.31729 32.88154 10680 ft 329 kts 251°
2026-05-07 17:10 40.30849 32.85279 10842 ft 349 kts 249°
2026-05-07 17:10 40.29903 32.82283 11210 ft 360 kts 249°
2026-05-07 17:10 40.28958 32.79218 11802 ft 364 kts 250°
2026-05-07 17:10 40.28030 32.76113 12403 ft 367 kts 251°
2026-05-07 17:11 40.27113 32.72970 13025 ft 371 kts 251°
2026-05-07 17:11 40.26201 32.69795 13597 ft 375 kts 252°
2026-05-07 17:11 40.25277 32.66569 14107 ft 380 kts 253°
2026-05-07 17:11 40.24364 32.63307 14637 ft 383 kts 251°
2026-05-07 17:12 40.23087 32.60223 15176 ft 392 kts 232°
2026-05-07 17:12 40.21037 32.57924 15742 ft 398 kts 213°
2026-05-07 17:12 40.18450 32.56551 16279 ft 405 kts 195°
2026-05-07 17:12 40.15690 32.55740 16822 ft 408 kts 194°
2026-05-07 17:13 40.12901 32.54949 17300 ft 412 kts 194°
2026-05-07 17:13 40.10101 32.54061 17800 ft 414 kts 200°
2026-05-07 17:13 40.07450 32.52615 18327 ft 413 kts 211°
2026-05-07 17:13 40.05048 32.50646 18770 ft 413 kts 216°
2026-05-07 17:14 40.02648 32.48555 19172 ft 417 kts 216°
2026-05-07 17:14 40.00215 32.46448 19566 ft 422 kts 217°
2026-05-07 17:14 39.97754 32.44343 19962 ft 425 kts 216°
2026-05-07 17:14 39.95255 32.42229 20382 ft 428 kts 216°
2026-05-07 17:15 39.92739 32.40113 20794 ft 431 kts 217°
2026-05-07 17:15 39.90177 32.38018 21158 ft 437 kts 212°
2026-05-07 17:15 39.87375 32.36375 21526 ft 446 kts 202°
2026-05-07 17:15 39.84388 32.35351 21902 ft 453 kts 194°
2026-05-07 17:16 39.81259 32.34638 22261 ft 457 kts 193°
2026-05-07 17:16 39.78092 32.33955 22506 ft 464 kts 193°
2026-05-07 17:16 39.74892 32.33254 22876 ft 467 kts 193°
2026-05-07 17:16 39.71686 32.32526 23284 ft 469 kts 193°
2026-05-07 17:17 39.68465 32.31772 23667 ft 471 kts 194°
2026-05-07 17:17 39.65221 32.31003 23981 ft 474 kts 194°
2026-05-07 17:17 39.61955 32.30229 24308 ft 477 kts 194°
2026-05-07 17:17 39.58651 32.29672 24615 ft 483 kts 185°
2026-05-07 17:18 39.55321 32.29793 24942 ft 488 kts 176°
2026-05-07 17:18 39.51964 32.30575 25257 ft 493 kts 166°
2026-05-07 17:18 39.48685 32.31928 25576 ft 496 kts 163°
2026-05-07 17:18 39.45396 32.33325 25867 ft 498 kts 163°
2026-05-07 17:19 39.42024 32.34418 26101 ft 498 kts 176°
2026-05-07 17:19 39.38574 32.34402 26371 ft 493 kts 192°
2026-05-07 17:19 39.35261 32.33380 26690 ft 486 kts 205°
2026-05-07 17:19 39.32216 32.31542 26971 ft 482 kts 213°
2026-05-07 17:20 39.29245 32.29519 27241 ft 484 kts 213°
2026-05-07 17:20 39.26246 32.27492 27510 ft 487 kts 213°
2026-05-07 17:20 39.23258 32.25497 27791 ft 489 kts 213°
2026-05-07 17:20 39.20218 32.23492 28079 ft 491 kts 212°
2026-05-07 17:21 39.17167 32.21499 28337 ft 493 kts 212°
2026-05-07 17:21 39.14100 32.19507 28586 ft 495 kts 212°
2026-05-07 17:21 39.11019 32.17512 28973 ft 494 kts 212°
2026-05-07 17:21 39.07954 32.15534 29412 ft 492 kts 212°
2026-05-07 17:22 39.04892 32.13558 29834 ft 491 kts 212°
2026-05-07 17:22 39.01836 32.11586 30205 ft 491 kts 213°
2026-05-07 17:22 38.98786 32.09617 30511 ft 490 kts 213°
2026-05-07 17:22 38.95779 32.07678 30838 ft 489 kts 213°
2026-05-07 17:23 38.92742 32.05721 31168 ft 488 kts 213°
2026-05-07 17:23 38.89708 32.03767 31477 ft 487 kts 213°
2026-05-07 17:23 38.86684 32.01822 31771 ft 486 kts 213°
2026-05-07 17:23 38.83663 31.99880 32080 ft 485 kts 213°
2026-05-07 17:24 38.80648 31.97944 32403 ft 484 kts 213°
2026-05-07 17:24 38.77640 31.96015 32715 ft 483 kts 213°
2026-05-07 17:24 38.74628 31.94085 32985 ft 482 kts 213°
2026-05-07 17:24 38.71627 31.92162 33220 ft 483 kts 213°
2026-05-07 17:25 38.68619 31.90238 33499 ft 482 kts 213°
2026-05-07 17:25 38.65629 31.88327 33817 ft 480 kts 213°
2026-05-07 17:25 38.62683 31.86447 34107 ft 478 kts 213°
2026-05-07 17:25 38.59706 31.84549 34323 ft 478 kts 213°
2026-05-07 17:26 38.56735 31.82656 34578 ft 476 kts 213°
2026-05-07 17:26 38.53777 31.80774 34822 ft 474 kts 213°
2026-05-07 17:26 38.50822 31.78893 35019 ft 474 kts 213°
2026-05-07 17:26 38.47876 31.77021 35221 ft 473 kts 213°
2026-05-07 17:27 38.41953 31.73259 35188 ft 474 kts 212°
2026-05-07 17:27 38.36052 31.69523 35194 ft 471 kts 212°
2026-05-07 17:28 38.30211 31.65830 35196 ft 469 kts 213°
2026-05-07 17:28 38.24363 31.62138 35201 ft 468 kts 213°
2026-05-07 17:29 38.18566 31.58483 35202 ft 468 kts 212°
2026-05-07 17:29 38.12718 31.54808 35198 ft 469 kts 212°
2026-05-07 17:30 38.06846 31.51193 35195 ft 468 kts 211°
2026-05-07 17:30 38.00932 31.47658 35213 ft 470 kts 211°
2026-05-07 17:31 37.95003 31.44120 35202 ft 471 kts 211°
2026-05-07 17:31 37.89104 31.40592 35198 ft 471 kts 211°
2026-05-07 17:32 37.83169 31.37042 35201 ft 471 kts 211°
2026-05-07 17:32 37.78240 31.34097 35192 ft 470 kts 211°
2026-05-07 17:33 37.71332 31.29978 35175 ft 469 kts 211°
2026-05-07 17:33 37.65455 31.26479 35181 ft 469 kts 211°
2026-05-07 17:34 37.59551 31.22972 35183 ft 469 kts 211°
2026-05-07 17:34 37.53638 31.19470 35172 ft 468 kts 211°
2026-05-07 17:35 37.47746 31.15982 35154 ft 467 kts 210°
2026-05-07 17:35 37.41876 31.12510 35180 ft 465 kts 211°
2026-05-07 17:36 37.36023 31.09052 35188 ft 464 kts 211°
2026-05-07 17:36 37.30339 31.05319 35163 ft 464 kts 214°
2026-05-07 17:37 37.24675 31.01398 35135 ft 465 kts 214°
2026-05-07 17:37 37.18985 30.97503 35127 ft 466 kts 214°
2026-05-07 17:38 37.13274 30.93644 35126 ft 465 kts 213°
2026-05-07 17:38 37.07569 30.89800 35109 ft 465 kts 213°
2026-05-07 17:39 37.01911 30.85991 35098 ft 464 kts 213°
2026-05-07 17:39 36.96214 30.82170 35101 ft 463 kts 212°
2026-05-07 17:40 36.93219 30.80616 35095 ft 470 kts 201°
2026-05-07 17:40 36.90016 30.79701 35109 ft 475 kts 192°
2026-05-07 17:40 36.83358 30.79542 35113 ft 480 kts 181°
2026-05-07 17:41 36.76680 30.79898 35108 ft 480 kts 181°
2026-05-07 17:41 36.70041 30.80194 35102 ft 480 kts 182°
2026-05-07 17:42 36.63356 30.80436 35100 ft 479 kts 182°
2026-05-07 17:42 36.56685 30.80667 35106 ft 480 kts 182°
2026-05-07 17:43 36.50009 30.80902 35106 ft 480 kts 182°
2026-05-07 17:43 36.43363 30.81137 35106 ft 480 kts 182°
2026-05-07 17:44 36.36673 30.81364 35106 ft 480 kts 182°
2026-05-07 17:44 36.29979 30.81575 35109 ft 481 kts 182°
2026-05-07 17:45 36.23328 30.81786 35095 ft 481 kts 182°
2026-05-07 17:45 36.16639 30.82000 35107 ft 480 kts 182°
2026-05-07 17:46 36.09951 30.82213 35117 ft 480 kts 182°
2026-05-07 17:46 36.03260 30.82430 35122 ft 481 kts 182°
2026-05-07 17:47 35.96564 30.82810 35119 ft 481 kts 181°
2026-05-07 17:47 35.89878 30.83260 35124 ft 481 kts 181°
2026-05-07 17:48 35.83180 30.83688 35128 ft 481 kts 181°
2026-05-07 17:48 35.76530 30.84095 35119 ft 481 kts 181°
2026-05-07 17:49 35.69826 30.84504 35133 ft 481 kts 181°
2026-05-07 17:49 35.63134 30.84912 35131 ft 481 kts 181°
2026-05-07 17:50 35.56476 30.85234 35123 ft 481 kts 182°
2026-05-07 17:50 35.49787 30.85433 35138 ft 481 kts 183°
2026-05-07 17:51 35.44205 30.85603 35142 ft 482 kts 182°
2026-05-07 17:51 35.37496 30.85826 35139 ft 482 kts 182°
2026-05-07 17:52 35.30773 30.86057 35136 ft 483 kts 182°
2026-05-07 17:52 35.24082 30.86286 35144 ft 484 kts 182°
2026-05-07 17:53 35.17341 30.86515 35139 ft 484 kts 182°
2026-05-07 17:53 35.10591 30.86735 35128 ft 485 kts 182°
2026-05-07 17:54 35.03870 30.86950 35149 ft 485 kts 182°
2026-05-07 17:54 34.97100 30.87166 35145 ft 486 kts 182°
2026-05-07 17:55 34.90327 30.87384 35128 ft 487 kts 182°
2026-05-07 17:55 34.83549 30.87601 35145 ft 487 kts 182°
2026-05-07 17:56 34.76806 30.87817 35143 ft 488 kts 182°
2026-05-07 17:56 34.70015 30.88034 35142 ft 488 kts 182°
2026-05-07 17:57 34.63202 30.88252 35143 ft 489 kts 183°
2026-05-07 17:57 34.56381 30.88531 35144 ft 491 kts 182°
2026-05-07 17:58 34.49590 30.88899 35148 ft 492 kts 181°
2026-05-07 17:58 34.42733 30.89265 35132 ft 493 kts 182°
2026-05-07 17:59 34.35871 30.89615 35148 ft 494 kts 182°
2026-05-07 17:59 34.28987 30.89962 35152 ft 495 kts 182°
2026-05-07 18:00 34.22090 30.90315 35142 ft 496 kts 181°
2026-05-07 18:00 34.15224 30.90695 35148 ft 497 kts 181°
2026-05-07 18:01 34.08309 30.91082 35149 ft 497 kts 181°
2026-05-07 18:01 34.01387 30.91465 35138 ft 497 kts 181°
2026-05-07 18:02 33.91069 30.91998 35148 ft 496 kts 182°
2026-05-07 18:03 33.84160 30.92247 35146 ft 495 kts 182°
2026-05-07 18:03 33.77269 30.92486 35134 ft 496 kts 182°
2026-05-07 18:04 33.70373 30.92739 35140 ft 496 kts 182°
2026-05-07 18:04 33.63495 30.92998 35147 ft 496 kts 182°
2026-05-07 18:05 33.56575 30.93259 35145 ft 497 kts 182°
2026-05-07 18:05 33.49646 30.93519 35145 ft 499 kts 182°
2026-05-07 18:06 33.42696 30.93780 35149 ft 500 kts 182°
2026-05-07 18:06 33.35770 30.94039 35146 ft 501 kts 182°
2026-05-07 18:07 33.28775 30.94300 35138 ft 502 kts 182°
2026-05-07 18:07 33.21778 30.94561 35145 ft 503 kts 182°
2026-05-07 18:08 33.14778 30.94822 35141 ft 503 kts 182°
2026-05-07 18:08 33.07814 30.95150 35133 ft 504 kts 179°
2026-05-07 18:09 33.00813 30.95902 35153 ft 504 kts 177°
2026-05-07 18:09 32.93826 30.96767 35143 ft 504 kts 177°
2026-05-07 18:10 32.86853 30.97587 35139 ft 503 kts 178°
2026-05-07 18:10 32.79925 30.98364 35134 ft 501 kts 178°
2026-05-07 18:11 32.72966 30.99134 35134 ft 500 kts 178°
2026-05-07 18:11 32.66064 30.99897 35140 ft 500 kts 178°
2026-05-07 18:12 32.59127 31.00665 35128 ft 500 kts 178°
2026-05-07 18:12 32.52242 31.01427 35141 ft 499 kts 178°
2026-05-07 18:13 32.45307 31.02193 35143 ft 500 kts 178°
2026-05-07 18:13 32.38353 31.02960 35141 ft 501 kts 178°
2026-05-07 18:14 32.31402 31.03726 35141 ft 502 kts 178°
2026-05-07 18:14 32.24434 31.04492 35137 ft 503 kts 178°
2026-05-07 18:15 32.17490 31.05255 35135 ft 504 kts 178°
2026-05-07 18:15 32.10488 31.06023 35125 ft 505 kts 178°
2026-05-07 18:16 32.03476 31.06791 35140 ft 505 kts 178°
2026-05-07 18:16 31.96457 31.07559 35138 ft 506 kts 178°
2026-05-07 18:17 31.89486 31.08320 35127 ft 506 kts 178°
2026-05-07 18:17 31.82467 31.09086 35130 ft 506 kts 178°
2026-05-07 18:18 31.75453 31.09850 35136 ft 506 kts 178°
2026-05-07 18:18 31.68430 31.10614 35131 ft 506 kts 178°
2026-05-07 18:19 31.61413 31.11376 35112 ft 505 kts 177°
2026-05-07 18:19 31.54441 31.12133 35121 ft 505 kts 177°
2026-05-07 18:20 31.47463 31.13175 35129 ft 506 kts 173°
2026-05-07 18:20 31.40512 31.14539 35126 ft 506 kts 173°
2026-05-07 18:21 31.33548 31.15869 35120 ft 506 kts 173°
2026-05-07 18:21 31.26618 31.17139 35125 ft 507 kts 173°
2026-05-07 18:22 31.19638 31.18425 35118 ft 507 kts 173°
2026-05-07 18:22 31.12655 31.19733 35099 ft 508 kts 173°
2026-05-07 18:23 31.05705 31.21036 35120 ft 508 kts 173°
2026-05-07 18:23 30.98716 31.22341 35115 ft 509 kts 173°
2026-05-07 18:24 30.91717 31.23644 35106 ft 509 kts 173°
2026-05-07 18:24 30.84711 31.24947 35119 ft 509 kts 173°
2026-05-07 18:25 30.77759 31.26237 35096 ft 508 kts 173°
2026-05-07 18:25 30.70775 31.27532 35097 ft 506 kts 173°
2026-05-07 18:26 30.63829 31.28818 35081 ft 504 kts 173°
2026-05-07 18:26 30.56900 31.30099 35095 ft 502 kts 173°
2026-05-07 18:27 30.50042 31.31365 35096 ft 501 kts 173°
2026-05-07 18:27 30.43158 31.32631 35093 ft 500 kts 173°
2026-05-07 18:28 30.36271 31.33884 35078 ft 501 kts 173°
2026-05-07 18:28 30.29374 31.35137 35097 ft 502 kts 173°
2026-05-07 18:29 30.22448 31.36396 35109 ft 504 kts 173°
2026-05-07 18:29 30.15526 31.37653 35112 ft 507 kts 173°
2026-05-07 18:30 30.08711 31.39859 35112 ft 510 kts 155°
2026-05-07 18:30 30.02673 31.44147 35119 ft 510 kts 141°
2026-05-07 18:31 29.97012 31.49103 35098 ft 511 kts 141°
2026-05-07 18:31 29.91368 31.54014 35104 ft 509 kts 141°
2026-05-07 18:32 29.85735 31.58838 35066 ft 500 kts 142°
2026-05-07 18:32 29.80144 31.63592 35061 ft 499 kts 142°
2026-05-07 18:33 29.74550 31.68339 35070 ft 499 kts 142°
2026-05-07 18:33 29.68987 31.73057 35073 ft 500 kts 142°
2026-05-07 18:34 29.63371 31.77816 35074 ft 502 kts 142°
2026-05-07 18:34 29.57730 31.82588 35079 ft 504 kts 142°
2026-05-07 18:35 29.52070 31.87369 35076 ft 505 kts 142°
2026-05-07 18:35 29.46426 31.92131 35054 ft 506 kts 142°
2026-05-07 18:36 29.40748 31.96914 35060 ft 505 kts 142°
2026-05-07 18:36 29.35073 32.01687 35066 ft 505 kts 142°
2026-05-07 18:37 29.29430 32.06427 35065 ft 504 kts 142°
2026-05-07 18:37 29.23766 32.11178 35063 ft 502 kts 142°
2026-05-07 18:38 29.18132 32.15897 35049 ft 500 kts 142°
2026-05-07 18:38 29.12560 32.20558 35052 ft 497 kts 142°
2026-05-07 18:39 29.06979 32.25220 35043 ft 496 kts 142°
2026-05-07 18:39 29.01411 32.29866 35053 ft 494 kts 142°
2026-05-07 18:40 28.95853 32.34496 35044 ft 494 kts 142°
2026-05-07 18:40 28.91233 32.38340 35055 ft 495 kts 142°
2026-05-07 18:41 28.85663 32.42970 35033 ft 495 kts 142°
2026-05-07 18:41 28.79190 32.48341 35042 ft 495 kts 142°
2026-05-07 18:42 28.74521 32.52210 35046 ft 495 kts 143°
2026-05-07 18:42 28.68941 32.56828 35045 ft 495 kts 143°
2026-05-07 18:43 28.63362 32.61440 35040 ft 496 kts 143°
2026-05-07 18:43 28.57803 32.66028 35026 ft 496 kts 143°
2026-05-07 18:44 28.52209 32.70640 35014 ft 496 kts 143°
2026-05-07 18:44 28.46615 32.75245 34994 ft 495 kts 143°
2026-05-07 18:45 28.41035 32.79832 35002 ft 494 kts 143°
2026-05-07 18:45 28.35457 32.84413 34984 ft 494 kts 143°
2026-05-07 18:46 28.29922 32.88952 34984 ft 494 kts 143°
2026-05-07 18:46 28.24355 32.93511 34984 ft 493 kts 144°
2026-05-07 18:47 28.18794 32.98059 34964 ft 492 kts 144°
2026-05-07 18:47 28.13245 33.02592 34968 ft 492 kts 144°
2026-05-07 18:48 28.07700 33.07117 34950 ft 491 kts 144°
2026-05-07 18:48 28.02146 33.11642 34954 ft 491 kts 144°
2026-05-07 18:49 27.96588 33.16161 34940 ft 491 kts 144°
2026-05-07 18:49 27.91070 33.20644 34930 ft 491 kts 144°
2026-05-07 18:50 27.85512 33.25155 34934 ft 491 kts 144°
2026-05-07 18:50 27.79951 33.29663 34922 ft 491 kts 144°
2026-05-07 18:51 27.74391 33.34164 34923 ft 491 kts 144°
2026-05-07 18:51 27.68871 33.38627 34919 ft 491 kts 144°
2026-05-07 18:52 27.63312 33.43117 34913 ft 491 kts 144°
2026-05-07 18:52 27.57757 33.47599 34911 ft 490 kts 145°
2026-05-07 18:53 27.52200 33.52076 34917 ft 490 kts 145°
2026-05-07 18:53 27.46668 33.56517 34915 ft 490 kts 145°
2026-05-07 18:54 27.41102 33.60976 34917 ft 491 kts 145°
2026-05-07 18:54 27.35536 33.65432 34916 ft 491 kts 145°
2026-05-07 18:55 27.29965 33.69888 34921 ft 491 kts 145°
2026-05-07 18:55 27.24383 33.74348 34903 ft 491 kts 145°
2026-05-07 18:56 27.19133 33.79222 34939 ft 490 kts 130°
2026-05-07 18:56 27.15501 33.85596 34932 ft 487 kts 110°
2026-05-07 18:57 27.13041 33.92696 34935 ft 487 kts 109°
2026-05-07 18:57 27.10595 33.99798 34928 ft 487 kts 110°
2026-05-07 18:58 27.08099 34.06830 34908 ft 488 kts 110°
2026-05-07 18:58 27.05560 34.13910 34895 ft 488 kts 110°
2026-05-07 18:59 27.03024 34.20980 34888 ft 488 kts 110°
2026-05-07 18:59 27.00503 34.28009 34897 ft 488 kts 110°
2026-05-07 19:00 26.97971 34.35073 34884 ft 487 kts 110°
2026-05-07 19:00 26.95408 34.42103 34889 ft 486 kts 110°
2026-05-07 19:01 26.92899 34.49148 34892 ft 486 kts 110°
2026-05-07 19:01 26.90385 34.56171 34884 ft 485 kts 110°
2026-05-07 19:02 26.87860 34.63175 34893 ft 484 kts 111°
2026-05-07 19:02 26.85347 34.70122 34884 ft 484 kts 111°
2026-05-07 19:03 26.82835 34.77119 34901 ft 483 kts 111°
2026-05-07 19:03 26.80266 34.84089 34896 ft 483 kts 111°
2026-05-07 19:04 26.77749 34.91061 34885 ft 483 kts 111°
2026-05-07 19:04 26.75228 34.97981 34903 ft 482 kts 111°
2026-05-07 19:05 26.72675 35.04917 34895 ft 482 kts 112°
2026-05-07 19:05 26.70139 35.11852 34893 ft 481 kts 112°
2026-05-07 19:06 26.67610 35.18737 34893 ft 481 kts 112°
2026-05-07 19:06 26.63777 35.29115 34892 ft 481 kts 113°
2026-05-07 19:07 26.61231 35.36031 34894 ft 481 kts 113°
2026-05-07 19:07 26.58685 35.42936 34892 ft 481 kts 113°
2026-05-07 19:08 26.56138 35.49804 34892 ft 481 kts 114°
2026-05-07 19:08 26.53503 35.56694 34888 ft 481 kts 115°
2026-05-07 19:09 26.50877 35.63568 34890 ft 481 kts 115°
2026-05-07 19:09 26.48248 35.70406 34892 ft 482 kts 115°
2026-05-07 19:10 26.45604 35.77285 34877 ft 482 kts 116°
2026-05-07 19:10 26.42964 35.84170 34891 ft 482 kts 116°
2026-05-07 19:11 26.40310 35.91049 34892 ft 483 kts 116°
2026-05-07 19:11 26.37646 35.97952 34889 ft 485 kts 116°
2026-05-07 19:12 26.34974 36.04867 34889 ft 486 kts 116°
2026-05-07 19:12 26.32313 36.11745 34889 ft 487 kts 116°
2026-05-07 19:13 26.29621 36.18691 34886 ft 487 kts 116°
2026-05-07 19:13 26.26931 36.25620 34870 ft 487 kts 117°
2026-05-07 19:14 26.24253 36.32507 34882 ft 486 kts 117°
2026-05-07 19:14 26.21558 36.39424 34884 ft 486 kts 117°
2026-05-07 19:15 26.18864 36.46330 34884 ft 485 kts 117°
2026-05-07 19:15 26.15991 36.53067 34883 ft 481 kts 123°
2026-05-07 19:16 26.12735 36.59561 34891 ft 480 kts 125°
2026-05-07 19:16 26.09449 36.66035 34889 ft 480 kts 124°
2026-05-07 19:17 26.06215 36.72530 34891 ft 480 kts 124°
2026-05-07 19:17 26.03007 36.79036 34881 ft 479 kts 125°
2026-05-07 19:18 25.99825 36.85485 34891 ft 479 kts 125°
2026-05-07 19:18 25.96615 36.91972 34892 ft 479 kts 125°
2026-05-07 19:19 25.93394 36.98471 34897 ft 479 kts 125°
2026-05-07 19:19 25.90114 37.04914 34894 ft 475 kts 129°
2026-05-07 19:20 25.86998 37.11397 34903 ft 480 kts 124°
2026-05-07 19:20 25.83797 37.17879 34901 ft 478 kts 127°
2026-05-07 19:21 25.80530 37.24319 34885 ft 479 kts 126°
2026-05-07 19:21 25.77007 37.30514 34875 ft 478 kts 127°
2026-05-07 19:22 25.74127 37.37230 34913 ft 482 kts 124°
2026-05-07 19:22 25.70996 37.43777 34924 ft 479 kts 128°
2026-05-07 19:23 25.67714 37.50178 34904 ft 482 kts 129°
2026-05-07 19:23 25.64398 37.56681 34925 ft 485 kts 128°
2026-05-07 19:24 25.61106 37.63245 34931 ft 488 kts 128°
2026-05-07 19:24 25.57788 37.69853 34929 ft 491 kts 128°
2026-05-07 19:25 25.54464 37.76469 34917 ft 491 kts 128°
2026-05-07 19:25 25.51167 37.83029 34908 ft 490 kts 128°
2026-05-07 19:26 25.47851 37.89616 34905 ft 488 kts 128°
2026-05-07 19:26 25.44549 37.96162 34868 ft 486 kts 128°
2026-05-07 19:27 25.41814 38.01575 34901 ft 483 kts 128°
2026-05-07 19:27 25.40194 38.04790 34879 ft 470 kts 128°
2026-05-07 19:27 25.38140 38.08881 34868 ft 448 kts 129°
2026-05-07 19:28 25.37128 38.10895 34868 ft 436 kts 129°
2026-05-07 19:28 25.35697 38.13733 34877 ft 420 kts 129°
2026-05-07 19:28 25.34292 38.16507 34883 ft 409 kts 130°
2026-05-07 19:28 25.32891 38.19250 34853 ft 411 kts 130°
2026-05-07 19:29 25.30038 38.24813 34902 ft 421 kts 130°
2026-05-07 19:29 25.27130 38.30510 34912 ft 430 kts 130°
2026-05-07 19:30 25.24176 38.36321 34904 ft 433 kts 129°
2026-05-07 19:30 25.21224 38.42129 34898 ft 434 kts 129°
2026-05-07 19:31 25.18280 38.47904 34909 ft 433 kts 130°
2026-05-07 19:31 25.15324 38.53691 34912 ft 432 kts 130°
2026-05-07 19:32 25.12371 38.59470 34897 ft 428 kts 130°
2026-05-07 19:32 25.09481 38.65132 34893 ft 420 kts 130°
2026-05-07 19:33 25.08046 38.67933 34725 ft 421 kts 130°
2026-05-07 19:33 25.06603 38.70719 34119 ft 425 kts 130°
2026-05-07 19:33 25.05158 38.73545 33607 ft 419 kts 129°
2026-05-07 19:33 25.03746 38.76319 33149 ft 410 kts 129°
2026-05-07 19:34 25.02359 38.79036 32591 ft 403 kts 130°
2026-05-07 19:34 25.00982 38.81713 31991 ft 400 kts 130°
2026-05-07 19:34 24.99610 38.84374 31300 ft 399 kts 130°
2026-05-07 19:34 24.98239 38.87035 30639 ft 399 kts 129°
2026-05-07 19:35 24.96873 38.89690 29999 ft 396 kts 129°
2026-05-07 19:35 24.95436 38.92270 29139 ft 390 kts 135°
2026-05-07 19:35 24.93781 38.94616 28255 ft 387 kts 139°
2026-05-07 19:35 24.92038 38.96878 27362 ft 388 kts 139°
2026-05-07 19:36 24.90272 38.99140 26469 ft 390 kts 139°
2026-05-07 19:36 24.88533 39.01398 25635 ft 392 kts 137°
2026-05-07 19:36 24.86793 39.03696 24952 ft 389 kts 136°
2026-05-07 19:36 24.85085 39.05984 24386 ft 383 kts 136°
2026-05-07 19:37 24.83400 39.08246 23761 ft 380 kts 136°
2026-05-07 19:37 24.81735 39.10489 23084 ft 376 kts 135°
2026-05-07 19:37 24.80090 39.12711 22348 ft 373 kts 135°
2026-05-07 19:37 24.78461 39.14902 21831 ft 364 kts 135°
2026-05-07 19:38 24.76929 39.17039 21605 ft 352 kts 128°
2026-05-07 19:38 24.76006 39.19554 20985 ft 363 kts 105°
2026-05-07 19:38 24.75899 39.22359 20325 ft 369 kts 92°
2026-05-07 19:38 24.76015 39.25177 19748 ft 368 kts 91°
2026-05-07 19:39 24.76157 39.27974 19206 ft 365 kts 90°
2026-05-07 19:39 24.76295 39.30721 18682 ft 362 kts 91°
2026-05-07 19:39 24.76423 39.33478 18122 ft 360 kts 91°
2026-05-07 19:39 24.76535 39.36225 17565 ft 356 kts 91°
2026-05-07 19:40 24.76643 39.38945 16903 ft 356 kts 91°
2026-05-07 19:40 24.76747 39.41650 16335 ft 350 kts 91°
2026-05-07 19:40 24.76844 39.44305 15794 ft 347 kts 91°
2026-05-07 19:40 24.76943 39.46941 15353 ft 341 kts 91°
2026-05-07 19:41 24.77042 39.49538 14839 ft 338 kts 90°
2026-05-07 19:41 24.77141 39.52084 14294 ft 337 kts 90°
2026-05-07 19:41 24.77238 39.54655 13806 ft 334 kts 90°
2026-05-07 19:41 24.77571 39.57179 13227 ft 334 kts 70°
2026-05-07 19:42 24.78777 39.59334 12708 ft 330 kts 44°
2026-05-07 19:42 24.80598 39.60783 12381 ft 315 kts 22°
2026-05-07 19:42 24.82626 39.61435 12268 ft 292 kts
2026-05-07 19:42 24.84601 39.61606 12079 ft 281 kts 359°
2026-05-07 19:43 24.86541 39.61727 11711 ft 277 kts 359°
2026-05-07 19:43 24.88444 39.61850 11212 ft 279 kts 359°
2026-05-07 19:43 24.90375 39.61985 10839 ft 275 kts 359°
2026-05-07 19:43 24.92263 39.62138 10425 ft 271 kts
2026-05-07 19:44 24.94043 39.62877 9821 ft 281 kts 36°
2026-05-07 19:44 24.95258 39.64544 9254 ft 281 kts 68°
2026-05-07 19:44 24.95608 39.66635 8827 ft 277 kts 92°
2026-05-07 19:44 24.95497 39.68728 8498 ft 271 kts 96°
2026-05-07 19:45 24.95074 39.70713 8020 ft 265 kts 122°
2026-05-07 19:45 24.93885 39.72191 7556 ft 255 kts 150°
2026-05-07 19:45 24.92293 39.72975 7120 ft 248 kts 169°
2026-05-07 19:45 24.90624 39.73072 6890 ft 236 kts 187°
2026-05-07 19:46 24.89024 39.72933 6710 ft 225 kts 187°
2026-05-07 19:46 24.87512 39.72806 6570 ft 211 kts 187°
2026-05-07 19:46 24.86091 39.72692 6436 ft 198 kts 187°
2026-05-07 19:46 24.84781 39.72589 6272 ft 185 kts 187°
2026-05-07 19:47 24.83544 39.72479 6099 ft 172 kts 190°
2026-05-07 19:47 24.82225 39.72352 6131 ft 206 kts 187°
2026-05-07 19:47 24.80696 39.72239 5787 ft 227 kts 186°
2026-05-07 19:47 24.79126 39.72123 5519 ft 225 kts 186°
2026-05-07 19:48 24.77592 39.72013 5281 ft 217 kts 186°
2026-05-07 19:48 24.76114 39.71905 5043 ft 210 kts 187°
2026-05-07 19:48 24.74665 39.71798 4843 ft 208 kts 187°
2026-05-07 19:48 24.73246 39.71692 4666 ft 200 kts 188°
2026-05-07 19:49 24.71876 39.71585 4463 ft 197 kts 187°
2026-05-07 19:49 24.70503 39.71478 4251 ft 199 kts 187°
2026-05-07 19:49 24.69144 39.71370 4040 ft 190 kts 187°
2026-05-07 19:49 24.67892 39.71278 3888 ft 169 kts 187°
2026-05-07 19:50 24.66716 39.71191 3709 ft 169 kts 187°
2026-05-07 19:50 24.65566 39.71102 3527 ft 167 kts 187°
2026-05-07 19:50 24.64407 39.71014 3364 ft 166 kts 186°
2026-05-07 19:50 24.63256 39.70926 3184 ft 164 kts 186°
2026-05-07 19:51 24.62123 39.70838 3024 ft 163 kts 186°
2026-05-07 19:51 24.60988 39.70746 2847 ft 162 kts 186°
2026-05-07 19:51 24.59872 39.70662 2691 ft 160 kts 187°
2026-05-07 19:51 24.58769 39.70580 2532 ft 156 kts 186°
2026-05-07 19:52 24.57715 39.70501 2349 ft 153 kts 187°
2026-05-07 19:52 24.56659 39.70420 2206 ft 152 kts 185°
2026-05-07 19:52 24.55628 39.70342 2115 ft 139 kts 184°
2026-05-07 19:52 24.54844 39.70287 2095 ft 60 kts 184°
2026-05-07 19:53 24.54693 39.70243 2091 ft 14 kts 241°
2026-05-07 19:53 24.54673 39.70174 2091 ft 9 kts 220°
2026-05-07 19:53 24.54614 39.70152 2089 ft 9 kts 217°
2026-05-07 19:53 24.54579 39.70098 2088 ft 8 kts 246°
2026-05-07 19:54 24.54554 39.70041 2088 ft 8 kts 242°
2026-05-07 19:54 24.54544 39.70021 2088 ft 0 kts 242°